KEPLER-4 (ANTILLES) (46499 NORAD) Tracking and Keplerian Element Data

This shows tracking and keplerian element data for the satellite.

Feedback or suggestion? Click here.




ElementValue
Catalog46499
NameKEPLER-4 (ANTILLES)
Epoch Orbit460
Epoch Day303.65290258
Epoch Year2020
RAAN236.8014
Inclination97.6652
Eccentricity0.0013345
Argument of Perigee141.291
Mean Anonmoly218.9273
Mean Motion15.0222985
Decay Rate-6.1E-07
L11 46499U 20068P 20303.65290258 -.00000061 00000-0 39303-8 0 9997
L22 46499 97.6652 236.8014 0013345 141.2910 218.9273 15.02229850 4603

Live tracking and technical data element details for KEPLER-4 (ANTILLES) (NORAD 46499). KEPLER-4 (ANTILLES) can be tracked NOW for your location showing map with azimuth and elevation plus other details from your city location.

Track the satellite on the map from your city or location and see movement details for azimuth, elevation, latitude, longitude, range, height, and movement on the map or in text.







IsCatalogInMostPopularTable: catalog: 46499, numindb: 5
Update: records affected: 1



GetName: 46499 KEPLER-4 (ANTILLES)

Hit Count: updated at: Sat, 31 Oct 2020 07:35:19 GMT